This is the latest recevied weather packets stored in our database for station/object IV3CGM-13. If no packets are shown the sender has not sent any weather packets the latest 10 day(s).
| Time | Temp. | Humidity | Pressure | Rain* | Wind** | Luminosity | Snow |
|---|---|---|---|---|---|---|---|
| 1777644055 | 18.89° C | 28% | 1024.3 hPa | 0 mm | - | 604 W/m² | - |
| 1777643354 | 18.89° C | 28% | 1024.5 hPa | 0 mm | - | 635 W/m² | - |
| 1777642666 | 18.89° C | 27% | 1024.5 hPa | 0 mm | - | 659 W/m² | - |
| 1777641979 | 18.33° C | 29% | 1024.8 hPa | 0 mm | - | 684 W/m² | - |
| 1777641291 | 18.89° C | 27% | 1024.8 hPa | 0 mm | - | 707 W/m² | - |
| 1777640556 | 18.89° C | 26% | 1024.9 hPa | 0 mm | - | 726 W/m² | - |
| 1777639854 | 18.33° C | 29% | 1025.1 hPa | 0 mm | - | 744 W/m² | - |
| 1777639166 | 17.78° C | 29% | 1025.2 hPa | 0 mm | - | 765 W/m² | - |
| 1777638479 | 17.78° C | 28% | 1025.3 hPa | 0 mm | - | 783 W/m² | - |
| 1777637791 | 18.33° C | 28% | 1025.4 hPa | 0 mm | - | 803 W/m² | - |
| 1777637055 | 17.78° C | 28% | 1025.6 hPa | 0 mm | - | 812 W/m² | - |
| 1777636354 | 17.22° C | 29% | 1025.6 hPa | 0 mm | - | 816 W/m² | - |
| 1777635666 | 17.22° C | 31% | 1025.7 hPa | 0 mm | - | 825 W/m² | - |
| 1777634979 | 17.22° C | 30% | 1025.8 hPa | 0 mm | - | 832 W/m² | - |
| 1777634291 | 17.22° C | 31% | 1026 hPa | 0 mm | - | 845 W/m² | - |
| 1777633555 | 17.22° C | 30% | 1026.1 hPa | 0 mm | - | 853 W/m² | - |
| 1777632854 | 16.67° C | 33% | 1026.3 hPa | 0 mm | - | 850 W/m² | - |
| 1777632166 | 16.11° C | 31% | 1026.4 hPa | 0 mm | - | 853 W/m² | - |
| 1777631479 | 16.11° C | 31% | 1026.5 hPa | 0 mm | - | 847 W/m² | - |
| 1777630792 | 16.11° C | 34% | 1026.6 hPa | 0 mm | - | 834 W/m² | - |
| 1777630055 | 15.56° C | 32% | 1026.7 hPa | 0 mm | - | 822 W/m² | - |
| 1777629354 | 16.11° C | 31% | 1026.8 hPa | 0 mm | - | 800 W/m² | - |
| 1777628666 | 15.56° C | 33% | 1026.8 hPa | 0 mm | - | 779 W/m² | - |
| 1777627980 | 15.56° C | 31% | 1026.9 hPa | 0 mm | - | 763 W/m² | - |
| 1777627291 | 15.56° C | 32% | 1027 hPa | 0 mm | - | 740 W/m² | - |
* Rain latest hour (hover to see other rain measurements)
** Current wind speed in m/s (hover to see current wind gust speed)